BREEZE-M R/B, 36102

Orbit data source: Space-Track

BREEZE-M R/B, 36102 is space debris in HEO originally from a launch on Tue, 24 Nov 2009 UTC launched from the Tyuratam Missile And Space Complex (TTMTR). Debris objects in space refer to the collection of defunct objects orbiting the Earth. Examples of debris include non-operational satellites, rocket bodies, and fragments generated from explosions, collisions, or faulty payload assembly.

Loading next visibility...
Identifier
36102, 2009-065B
Orbit
HEO
Country
Flag of CISCIS
Related business
Manufacturer
Khrunichev
Mission
Spacecraft
Bus & Motor
BRIZ, Unknown motor
Mass
~1,600 kg wet, 1,600 kg dry
Launch date (UTC)
2009-11-24 (17 years ago)
Launch vehicle
Unknown
Launch site
Tyuratam Missile And Space Complex (TTMTR)
Object type
Payload
Rocket body
Debris
Shape & HBR
Cyl, 2.4 m
Radar Cross Section
15.135 m², Large (>1 m²)

Expand to show TLE details & history
Last TLE update: 17 hours ago

TLE from 17 hours ago
0 BREEZE-M R/B
1 36102U 09065B   26254.40174824 -.00000038  00000-0  00000-0 0  9993
2 36102  20.3272 208.2260 5901272 278.3415 315.5345  2.20879929135335
Epoch: 2026-09-11T09:38Z
TLE epoch observation values (Epoch: 2026-09-11T09:38:31.047Z)
Latitude
5.81684°
Longitude
-122.88695°
Altitude
15,371.906 km
Speed
4.544 km/s
True Right ascension
00h 48m 40s
True Declination
5° 48' 20"
Sunlit
Object was in daylight at epoch
Visualization orbit readout
Latitude
Unknown
Longitude
Unknown
Altitude
Unknown
Speed
Unknown
Apparent Right ascension
Unknown
Apparent Declination
Unknown
Sunlit
N/A
Visualization observer readout
Local Sidereal Time
19:07:45
Azimuth
Unknown
Elevation
Unknown
Doppler factor
Unknown
Orbital elements
Apogee altitude
33,229.397 km
Perigee altitude
3,831.141 km
Semi-major axis
24,908.406 km
Eccentricity
0.59013
Inclination
20.3272°
RAAN
208.226°
Arg. of periapsis
278.3415°
True anomaly
244.65918°
Mean anomaly
315.5345°
Eccentric anomaly
282.52772°
Mean motion
0.55211 °/min
Orbital period
652.05 mins
BSTAR
0
Loading maneuver chart data...
Computing Atmospheric mass density...
Loading historical data...
Loading historical data...
Loading historical data...
Loading historical data...
Loading historical data...
Loading historical data...
Loading historical data...
Other satellites on launch #65 in the year 2009 (2009-11-24 UTC)

Documentation

Showing up to 5 results
|